owner,sensor,date,latitude,longitude,vertical_datum,sea_water_practical_salinity,qcFlag 
TABS,ioos:station:wmo:42043:1,2017-02-02T00:00:00Z,28.9818,-94.9186,2.0,0.01,11111222 
TABS,ioos:station:wmo:42043:1,2017-02-02T00:30:00Z,28.9818,-94.9186,2.0,0.01,11111222 
TABS,ioos:station:wmo:42043:1,2017-02-02T01:00:00Z,28.9818,-94.9186,2.0,0.01,11111222 
TABS,ioos:station:wmo:42043:1,2017-02-02T01:30:00Z,28.9818,-94.9186,2.0,0.01,11111222 
TABS,ioos:station:wmo:42043:1,2017-02-02T02:00:00Z,28.9818,-94.9186,2.0,0.01,11111222 
TABS,ioos:station:wmo:42043:1,2017-02-02T02:30:00Z,28.9818,-94.9186,2.0,33.5,11111222 
TABS,ioos:station:wmo:42043:1,2017-02-02T03:00:00Z,28.9818,-94.9186,2.0,33.51,11111222 
TABS,ioos:station:wmo:42043:1,2017-02-02T03:30:00Z,28.9818,-94.9186,2.0,33.5,11111222 
TABS,ioos:station:wmo:42043:1,2017-02-02T04:00:00Z,28.9818,-94.9186,2.0,33.43,11111222 
TABS,ioos:station:wmo:42043:1,2017-02-02T04:30:00Z,28.9818,-94.9186,2.0,33.4,11111222 
TABS,ioos:station:wmo:42043:1,2017-02-02T05:00:00Z,28.9818,-94.9186,2.0,33.39,11111222 
TABS,ioos:station:wmo:42043:1,2017-02-02T05:30:00Z,28.9818,-94.9186,2.0,33.4,11111222 
TABS,ioos:station:wmo:42043:1,2017-02-02T06:00:00Z,28.9818,-94.9186,2.0,33.55,11111222 
TABS,ioos:station:wmo:42043:1,2017-02-02T06:30:00Z,28.9818,-94.9186,2.0,33.35,11111222 
TABS,ioos:station:wmo:42043:1,2017-02-02T07:00:00Z,28.9818,-94.9186,2.0,33.38,11111222 
TABS,ioos:station:wmo:42043:1,2017-02-02T07:30:00Z,28.9818,-94.9186,2.0,33.36,11111222 
TABS,ioos:station:wmo:42043:1,2017-02-02T08:00:00Z,28.9818,-94.9186,2.0,33.31,11111222 
TABS,ioos:station:wmo:42043:1,2017-02-02T08:30:00Z,28.9818,-94.9186,2.0,33.35,11111222 
TABS,ioos:station:wmo:42043:1,2017-02-02T09:00:00Z,28.9818,-94.9186,2.0,33.32,11111222 
TABS,ioos:station:wmo:42043:1,2017-02-02T09:30:00Z,28.9818,-94.9186,2.0,33.35,11111222 
TABS,ioos:station:wmo:42043:1,2017-02-02T10:00:00Z,28.9818,-94.9186,2.0,33.37,11111222 
TABS,ioos:station:wmo:42043:1,2017-02-02T10:30:00Z,28.9818,-94.9186,2.0,33.39,11111222 
TABS,ioos:station:wmo:42043:1,2017-02-02T11:00:00Z,28.9818,-94.9186,2.0,33.44,11111222 
TABS,ioos:station:wmo:42043:1,2017-02-02T11:30:00Z,28.9818,-94.9186,2.0,33.45,11111222 
TABS,ioos:station:wmo:42043:1,2017-02-02T12:00:00Z,28.9818,-94.9186,2.0,33.51,11111222 
TABS,ioos:station:wmo:42043:1,2017-02-02T12:30:00Z,28.9818,-94.9186,2.0,33.52,11111222 
TABS,ioos:station:wmo:42043:1,2017-02-02T13:00:00Z,28.9818,-94.9186,2.0,33.54,11111222 
TABS,ioos:station:wmo:42043:1,2017-02-02T13:30:00Z,28.9818,-94.9186,2.0,33.56,11111222 
TABS,ioos:station:wmo:42043:1,2017-02-02T14:00:00Z,28.9818,-94.9186,2.0,33.6,11111222 
TABS,ioos:station:wmo:42043:1,2017-02-02T14:30:00Z,28.9818,-94.9186,2.0,33.61,11111222 
TABS,ioos:station:wmo:42043:1,2017-02-02T15:00:00Z,28.9818,-94.9186,2.0,33.63,11111222 
TABS,ioos:station:wmo:42043:1,2017-02-02T15:30:00Z,28.9818,-94.9186,2.0,33.66,11111222 
TABS,ioos:station:wmo:42043:1,2017-02-02T16:00:00Z,28.9818,-94.9186,2.0,33.68,11111222 
TABS,ioos:station:wmo:42043:1,2017-02-02T16:30:00Z,28.9818,-94.9186,2.0,33.71,11111222 
TABS,ioos:station:wmo:42043:1,2017-02-02T17:00:00Z,28.9818,-94.9186,2.0,33.8,11111222 
TABS,ioos:station:wmo:42043:1,2017-02-02T17:30:00Z,28.9818,-94.9186,2.0,33.88,11111222 
TABS,ioos:station:wmo:42043:1,2017-02-02T18:00:00Z,28.9818,-94.9186,2.0,33.94,11111222 
TABS,ioos:station:wmo:42043:1,2017-02-02T18:30:00Z,28.9818,-94.9186,2.0,34.02,11111222 
TABS,ioos:station:wmo:42043:1,2017-02-02T19:00:00Z,28.9818,-94.9186,2.0,34.09,11111222 
TABS,ioos:station:wmo:42043:1,2017-02-02T19:30:00Z,28.9818,-94.9186,2.0,34.13,11111222 
TABS,ioos:station:wmo:42043:1,2017-02-02T20:00:00Z,28.9818,-94.9186,2.0,34.13,11111222 
TABS,ioos:station:wmo:42043:1,2017-02-02T20:30:00Z,28.9818,-94.9186,2.0,34.14,11111222 
TABS,ioos:station:wmo:42043:1,2017-02-02T21:00:00Z,28.9818,-94.9186,2.0,34.15,11111222 
TABS,ioos:station:wmo:42043:1,2017-02-02T21:30:00Z,28.9818,-94.9186,2.0,34.17,11111222 
TABS,ioos:station:wmo:42043:1,2017-02-02T22:00:00Z,28.9818,-94.9186,2.0,34.17,11111222 
TABS,ioos:station:wmo:42043:1,2017-02-02T22:30:00Z,28.9818,-94.9186,2.0,34.17,11111222 
TABS,ioos:station:wmo:42043:1,2017-02-02T23:00:00Z,28.9818,-94.9186,2.0,34.15,11111222 
TABS,ioos:station:wmo:42043:1,2017-02-02T23:30:00Z,28.9818,-94.9186,2.0,34.16,11111222 
TABS,ioos:station:wmo:42043:1,2017-02-03T00:00:00Z,28.9818,-94.9186,2.0,34.16,11111222 
TABS,ioos:station:wmo:42043:1,2017-02-03T00:30:00Z,28.9818,-94.9186,2.0,34.15,11111222 
TABS,ioos:station:wmo:42043:1,2017-02-03T01:00:00Z,28.9818,-94.9186,2.0,34.14,11111222 
TABS,ioos:station:wmo:42043:1,2017-02-03T01:30:00Z,28.9818,-94.9186,2.0,34.15,11111222 
TABS,ioos:station:wmo:42043:1,2017-02-03T02:00:00Z,28.9818,-94.9186,2.0,34.15,11111222 
TABS,ioos:station:wmo:42043:1,2017-02-03T02:30:00Z,28.9818,-94.9186,2.0,34.07,11111222 
TABS,ioos:station:wmo:42043:1,2017-02-03T03:00:00Z,28.9818,-94.9186,2.0,34.09,11111222 
TABS,ioos:station:wmo:42043:1,2017-02-03T03:30:00Z,28.9818,-94.9186,2.0,34.11,11111222 
TABS,ioos:station:wmo:42043:1,2017-02-03T04:00:00Z,28.9818,-94.9186,2.0,34.15,11111222 
TABS,ioos:station:wmo:42043:1,2017-02-03T04:30:00Z,28.9818,-94.9186,2.0,34.2,11111222 
TABS,ioos:station:wmo:42043:1,2017-02-03T05:00:00Z,28.9818,-94.9186,2.0,34.21,11111222 
TABS,ioos:station:wmo:42043:1,2017-02-03T05:30:00Z,28.9818,-94.9186,2.0,34.27,11111222 
TABS,ioos:station:wmo:42043:1,2017-02-03T06:00:00Z,28.9818,-94.9186,2.0,34.35,11111222 
TABS,ioos:station:wmo:42043:1,2017-02-03T06:30:00Z,28.9818,-94.9186,2.0,34.43,11111222 
TABS,ioos:station:wmo:42043:1,2017-02-03T07:00:00Z,28.9818,-94.9186,2.0,34.51,11111222 
TABS,ioos:station:wmo:42043:1,2017-02-03T07:30:00Z,28.9818,-94.9186,2.0,34.56,11111222 
TABS,ioos:station:wmo:42043:1,2017-02-03T08:00:00Z,28.9818,-94.9186,2.0,34.6,11111222 
TABS,ioos:station:wmo:42043:1,2017-02-03T08:30:00Z,28.9818,-94.9186,2.0,34.62,11111222 
TABS,ioos:station:wmo:42043:1,2017-02-03T09:00:00Z,28.9818,-94.9186,2.0,34.65,11111222 
TABS,ioos:station:wmo:42043:1,2017-02-03T09:30:00Z,28.9818,-94.9186,2.0,34.66,11111222 
TABS,ioos:station:wmo:42043:1,2017-02-03T10:00:00Z,28.9818,-94.9186,2.0,34.66,11111222 
TABS,ioos:station:wmo:42043:1,2017-02-03T10:30:00Z,28.9818,-94.9186,2.0,34.67,11111222 
TABS,ioos:station:wmo:42043:1,2017-02-03T11:00:00Z,28.9818,-94.9186,2.0,34.67,11111222 
TABS,ioos:station:wmo:42043:1,2017-02-03T11:30:00Z,28.9818,-94.9186,2.0,34.67,11111222 
TABS,ioos:station:wmo:42043:1,2017-02-03T12:00:00Z,28.9818,-94.9186,2.0,34.67,11111222 
TABS,ioos:station:wmo:42043:1,2017-02-03T12:30:00Z,28.9818,-94.9186,2.0,34.68,11111222 
TABS,ioos:station:wmo:42043:1,2017-02-03T13:00:00Z,28.9818,-94.9186,2.0,34.69,11111222 
TABS,ioos:station:wmo:42043:1,2017-02-03T13:30:00Z,28.9818,-94.9186,2.0,34.7,11111222 
TABS,ioos:station:wmo:42043:1,2017-02-03T14:00:00Z,28.9818,-94.9186,2.0,34.7,11111222 
TABS,ioos:station:wmo:42043:1,2017-02-03T14:30:00Z,28.9818,-94.9186,2.0,34.71,11111222 
TABS,ioos:station:wmo:42043:1,2017-02-03T15:00:00Z,28.9818,-94.9186,2.0,34.71,11111222 
TABS,ioos:station:wmo:42043:1,2017-02-03T15:30:00Z,28.9818,-94.9186,2.0,34.71,11111222 
TABS,ioos:station:wmo:42043:1,2017-02-03T16:00:00Z,28.9818,-94.9186,2.0,34.7,11111222 
TABS,ioos:station:wmo:42043:1,2017-02-03T16:30:00Z,28.9818,-94.9186,2.0,34.7,11111222 
TABS,ioos:station:wmo:42043:1,2017-02-03T17:00:00Z,28.9818,-94.9186,2.0,34.7,11111222 
TABS,ioos:station:wmo:42043:1,2017-02-03T17:30:00Z,28.9818,-94.9186,2.0,34.71,11111222 
TABS,ioos:station:wmo:42043:1,2017-02-03T18:00:00Z,28.9818,-94.9186,2.0,34.72,11111222 
TABS,ioos:station:wmo:42043:1,2017-02-03T18:30:00Z,28.9818,-94.9186,2.0,34.73,11111222 
TABS,ioos:station:wmo:42043:1,2017-02-03T19:00:00Z,28.9818,-94.9186,2.0,34.73,11111222 
TABS,ioos:station:wmo:42043:1,2017-02-03T19:30:00Z,28.9818,-94.9186,2.0,34.73,11111222 
TABS,ioos:station:wmo:42043:1,2017-02-03T20:00:00Z,28.9818,-94.9186,2.0,34.73,11111222 
TABS,ioos:station:wmo:42043:1,2017-02-03T20:30:00Z,28.9818,-94.9186,2.0,34.73,11111222 
TABS,ioos:station:wmo:42043:1,2017-02-03T21:00:00Z,28.9818,-94.9186,2.0,34.73,11111222 
TABS,ioos:station:wmo:42043:1,2017-02-03T21:30:00Z,28.9818,-94.9186,2.0,34.44,11111222 
TABS,ioos:station:wmo:42043:1,2017-02-03T22:00:00Z,28.9818,-94.9186,2.0,34.34,11111222 
TABS,ioos:station:wmo:42043:1,2017-02-03T22:30:00Z,28.9818,-94.9186,2.0,34.32,11111222 
TABS,ioos:station:wmo:42043:1,2017-02-03T23:00:00Z,28.9818,-94.9186,2.0,34.32,11111222 
TABS,ioos:station:wmo:42043:1,2017-02-03T23:30:00Z,28.9818,-94.9186,2.0,34.34,11111222 
TABS,ioos:station:wmo:42043:1,2017-02-04T00:00:00Z,28.9818,-94.9186,2.0,34.37,11111222 
TABS,ioos:station:wmo:42043:1,2017-02-04T00:30:00Z,28.9818,-94.9186,2.0,34.38,11111222 
TABS,ioos:station:wmo:42043:1,2017-02-04T01:00:00Z,28.9818,-94.9186,2.0,34.4,11111222 
TABS,ioos:station:wmo:42043:1,2017-02-04T01:30:00Z,28.9818,-94.9186,2.0,34.39,11111222 
TABS,ioos:station:wmo:42043:1,2017-02-04T02:00:00Z,28.9818,-94.9186,2.0,34.32,11111222 
TABS,ioos:station:wmo:42043:1,2017-02-04T02:30:00Z,28.9818,-94.9186,2.0,34.34,11111222 
TABS,ioos:station:wmo:42043:1,2017-02-04T03:00:00Z,28.9818,-94.9186,2.0,34.34,11111222 
TABS,ioos:station:wmo:42043:1,2017-02-04T03:30:00Z,28.9818,-94.9186,2.0,34.36,11111222 
TABS,ioos:station:wmo:42043:1,2017-02-04T04:00:00Z,28.9818,-94.9186,2.0,34.33,11111222 
TABS,ioos:station:wmo:42043:1,2017-02-04T04:30:00Z,28.9818,-94.9186,2.0,34.32,11111222 
TABS,ioos:station:wmo:42043:1,2017-02-04T05:00:00Z,28.9818,-94.9186,2.0,34.24,11111222 
TABS,ioos:station:wmo:42043:1,2017-02-04T05:30:00Z,28.9818,-94.9186,2.0,34.25,11111222 
TABS,ioos:station:wmo:42043:1,2017-02-04T06:00:00Z,28.9818,-94.9186,2.0,34.22,11111222 
TABS,ioos:station:wmo:42043:1,2017-02-04T06:30:00Z,28.9818,-94.9186,2.0,34.16,11111222 
TABS,ioos:station:wmo:42043:1,2017-02-04T07:00:00Z,28.9818,-94.9186,2.0,34.16,11111222 
TABS,ioos:station:wmo:42043:1,2017-02-04T07:30:00Z,28.9818,-94.9186,2.0,34.2,11111222 
TABS,ioos:station:wmo:42043:1,2017-02-04T08:00:00Z,28.9818,-94.9186,2.0,34.27,11111222 
TABS,ioos:station:wmo:42043:1,2017-02-04T08:30:00Z,28.9818,-94.9186,2.0,34.34,11111222 
TABS,ioos:station:wmo:42043:1,2017-02-04T09:00:00Z,28.9818,-94.9186,2.0,34.27,11111222 
TABS,ioos:station:wmo:42043:1,2017-02-04T09:30:00Z,28.9818,-94.9186,2.0,34.31,11111222 
TABS,ioos:station:wmo:42043:1,2017-02-04T10:00:00Z,28.9818,-94.9186,2.0,34.36,11111222 
TABS,ioos:station:wmo:42043:1,2017-02-04T10:30:00Z,28.9818,-94.9186,2.0,34.31,11111222 
TABS,ioos:station:wmo:42043:1,2017-02-04T11:00:00Z,28.9818,-94.9186,2.0,34.33,11111222 
TABS,ioos:station:wmo:42043:1,2017-02-04T11:30:00Z,28.9818,-94.9186,2.0,34.31,11111222 
TABS,ioos:station:wmo:42043:1,2017-02-04T12:00:00Z,28.9818,-94.9186,2.0,34.35,11111222 
TABS,ioos:station:wmo:42043:1,2017-02-04T12:30:00Z,28.9818,-94.9186,2.0,34.33,11111222 
TABS,ioos:station:wmo:42043:1,2017-02-04T13:00:00Z,28.9818,-94.9186,2.0,34.37,11111222 
TABS,ioos:station:wmo:42043:1,2017-02-04T13:30:00Z,28.9818,-94.9186,2.0,34.39,11111222 
TABS,ioos:station:wmo:42043:1,2017-02-04T14:00:00Z,28.9818,-94.9186,2.0,34.39,11111222 
TABS,ioos:station:wmo:42043:1,2017-02-04T14:30:00Z,28.9818,-94.9186,2.0,34.36,11111222 
TABS,ioos:station:wmo:42043:1,2017-02-04T15:00:00Z,28.9818,-94.9186,2.0,34.37,11111222 
TABS,ioos:station:wmo:42043:1,2017-02-04T15:30:00Z,28.9818,-94.9186,2.0,34.39,11111222 
TABS,ioos:station:wmo:42043:1,2017-02-04T16:00:00Z,28.9818,-94.9186,2.0,34.41,11111222 
TABS,ioos:station:wmo:42043:1,2017-02-04T16:30:00Z,28.9818,-94.9186,2.0,34.41,11111222 
TABS,ioos:station:wmo:42043:1,2017-02-04T17:00:00Z,28.9818,-94.9186,2.0,34.4,11111222 
TABS,ioos:station:wmo:42043:1,2017-02-04T17:30:00Z,28.9818,-94.9186,2.0,34.41,11111222 
TABS,ioos:station:wmo:42043:1,2017-02-04T18:00:00Z,28.9818,-94.9186,2.0,34.4,11111222 
TABS,ioos:station:wmo:42043:1,2017-02-04T18:30:00Z,28.9818,-94.9186,2.0,34.39,11111222 
TABS,ioos:station:wmo:42043:1,2017-02-04T19:00:00Z,28.9818,-94.9186,2.0,34.44,11111222 
TABS,ioos:station:wmo:42043:1,2017-02-04T19:30:00Z,28.9818,-94.9186,2.0,34.44,11111222 
TABS,ioos:station:wmo:42043:1,2017-02-04T20:00:00Z,28.9818,-94.9186,2.0,34.51,11111222 
TABS,ioos:station:wmo:42043:1,2017-02-04T20:30:00Z,28.9818,-94.9186,2.0,34.58,11111222 
TABS,ioos:station:wmo:42043:1,2017-02-04T21:00:00Z,28.9818,-94.9186,2.0,34.6,11111222 
TABS,ioos:station:wmo:42043:1,2017-02-04T21:30:00Z,28.9818,-94.9186,2.0,34.62,11111222 
TABS,ioos:station:wmo:42043:1,2017-02-04T22:00:00Z,28.9818,-94.9186,2.0,34.63,11111222 
TABS,ioos:station:wmo:42043:1,2017-02-04T22:30:00Z,28.9818,-94.9186,2.0,34.69,11111222 
TABS,ioos:station:wmo:42043:1,2017-02-04T23:00:00Z,28.9818,-94.9186,2.0,34.67,11111222 
TABS,ioos:station:wmo:42043:1,2017-02-04T23:30:00Z,28.9818,-94.9186,2.0,34.66,11111222 
TABS,ioos:station:wmo:42043:1,2017-02-05T00:00:00Z,28.9818,-94.9186,2.0,34.66,11111222 
TABS,ioos:station:wmo:42043:1,2017-02-05T00:30:00Z,28.9818,-94.9186,2.0,34.67,11111222 
TABS,ioos:station:wmo:42043:1,2017-02-05T01:00:00Z,28.9818,-94.9186,2.0,34.7,11111222 
TABS,ioos:station:wmo:42043:1,2017-02-05T01:30:00Z,28.9818,-94.9186,2.0,34.72,11111222 
TABS,ioos:station:wmo:42043:1,2017-02-05T02:00:00Z,28.9818,-94.9186,2.0,34.72,11111222 
TABS,ioos:station:wmo:42043:1,2017-02-05T02:30:00Z,28.9818,-94.9186,2.0,34.7,11111222 
TABS,ioos:station:wmo:42043:1,2017-02-05T03:00:00Z,28.9818,-94.9186,2.0,34.75,11111222 
TABS,ioos:station:wmo:42043:1,2017-02-05T03:30:00Z,28.9818,-94.9186,2.0,34.58,11111222 
TABS,ioos:station:wmo:42043:1,2017-02-05T04:00:00Z,28.9818,-94.9186,2.0,34.57,11111222 
TABS,ioos:station:wmo:42043:1,2017-02-05T04:30:00Z,28.9818,-94.9186,2.0,34.6,11111222 
TABS,ioos:station:wmo:42043:1,2017-02-05T05:00:00Z,28.9818,-94.9186,2.0,34.55,11111222 
TABS,ioos:station:wmo:42043:1,2017-02-05T05:30:00Z,28.9818,-94.9186,2.0,34.51,11111222 
TABS,ioos:station:wmo:42043:1,2017-02-05T06:00:00Z,28.9818,-94.9186,2.0,34.49,11111222 
TABS,ioos:station:wmo:42043:1,2017-02-05T06:30:00Z,28.9818,-94.9186,2.0,34.46,11111222 
TABS,ioos:station:wmo:42043:1,2017-02-05T07:00:00Z,28.9818,-94.9186,2.0,34.42,11111222 
TABS,ioos:station:wmo:42043:1,2017-02-05T07:30:00Z,28.9818,-94.9186,2.0,34.4,11111222 
TABS,ioos:station:wmo:42043:1,2017-02-05T08:00:00Z,28.9818,-94.9186,2.0,34.37,11111222 
TABS,ioos:station:wmo:42043:1,2017-02-05T08:30:00Z,28.9818,-94.9186,2.0,34.35,11111222 
TABS,ioos:station:wmo:42043:1,2017-02-05T09:00:00Z,28.9818,-94.9186,2.0,34.34,11111222 
TABS,ioos:station:wmo:42043:1,2017-02-05T09:30:00Z,28.9818,-94.9186,2.0,34.33,11111222 
TABS,ioos:station:wmo:42043:1,2017-02-05T10:00:00Z,28.9818,-94.9186,2.0,34.32,11111222 
TABS,ioos:station:wmo:42043:1,2017-02-05T10:30:00Z,28.9818,-94.9186,2.0,34.31,11111222 
TABS,ioos:station:wmo:42043:1,2017-02-05T11:00:00Z,28.9818,-94.9186,2.0,34.31,11111222 
TABS,ioos:station:wmo:42043:1,2017-02-05T11:30:00Z,28.9818,-94.9186,2.0,34.3,11111222 
TABS,ioos:station:wmo:42043:1,2017-02-05T12:00:00Z,28.9818,-94.9186,2.0,34.3,11111222 
TABS,ioos:station:wmo:42043:1,2017-02-05T12:30:00Z,28.9818,-94.9186,2.0,34.3,11111222 
TABS,ioos:station:wmo:42043:1,2017-02-05T13:00:00Z,28.9818,-94.9186,2.0,34.31,11111222 
TABS,ioos:station:wmo:42043:1,2017-02-05T13:30:00Z,28.9818,-94.9186,2.0,34.31,11111222 
TABS,ioos:station:wmo:42043:1,2017-02-05T14:00:00Z,28.9818,-94.9186,2.0,34.31,11111222 
TABS,ioos:station:wmo:42043:1,2017-02-05T14:30:00Z,28.9818,-94.9186,2.0,34.31,11111222 
TABS,ioos:station:wmo:42043:1,2017-02-05T15:00:00Z,28.9818,-94.9186,2.0,34.31,11111222 
TABS,ioos:station:wmo:42043:1,2017-02-05T15:30:00Z,28.9818,-94.9186,2.0,34.31,11111222 
TABS,ioos:station:wmo:42043:1,2017-02-05T16:00:00Z,28.9818,-94.9186,2.0,34.31,11111222 
TABS,ioos:station:wmo:42043:1,2017-02-05T16:30:00Z,28.9818,-94.9186,2.0,34.29,11111222 
TABS,ioos:station:wmo:42043:1,2017-02-05T17:00:00Z,28.9818,-94.9186,2.0,34.3,11111222 
TABS,ioos:station:wmo:42043:1,2017-02-05T17:30:00Z,28.9818,-94.9186,2.0,34.29,11111222 
TABS,ioos:station:wmo:42043:1,2017-02-05T18:00:00Z,28.9818,-94.9186,2.0,34.29,11111222 
TABS,ioos:station:wmo:42043:1,2017-02-05T18:30:00Z,28.9818,-94.9186,2.0,34.29,11111222 
TABS,ioos:station:wmo:42043:1,2017-02-05T19:00:00Z,28.9818,-94.9186,2.0,34.29,11111222 
TABS,ioos:station:wmo:42043:1,2017-02-05T19:30:00Z,28.9818,-94.9186,2.0,34.27,11111222 
TABS,ioos:station:wmo:42043:1,2017-02-05T20:00:00Z,28.9818,-94.9186,2.0,34.27,11111222 
TABS,ioos:station:wmo:42043:1,2017-02-05T20:30:00Z,28.9818,-94.9186,2.0,34.25,11111222 
TABS,ioos:station:wmo:42043:1,2017-02-05T21:00:00Z,28.9818,-94.9186,2.0,34.25,11111222 
TABS,ioos:station:wmo:42043:1,2017-02-05T21:30:00Z,28.9818,-94.9186,2.0,34.29,11111222 
TABS,ioos:station:wmo:42043:1,2017-02-05T22:00:00Z,28.9818,-94.9186,2.0,34.22,11111222 
TABS,ioos:station:wmo:42043:1,2017-02-05T22:30:00Z,28.9818,-94.9186,2.0,34.27,11111222 
TABS,ioos:station:wmo:42043:1,2017-02-05T23:00:00Z,28.9818,-94.9186,2.0,34.25,11111222 
TABS,ioos:station:wmo:42043:1,2017-02-05T23:30:00Z,28.9818,-94.9186,2.0,34.23,11111222 
TABS,ioos:station:wmo:42043:1,2017-02-06T00:00:00Z,28.9818,-94.9186,2.0,34.23,11111222 
TABS,ioos:station:wmo:42043:1,2017-02-06T00:30:00Z,28.9818,-94.9186,2.0,34.23,11111222 
TABS,ioos:station:wmo:42043:1,2017-02-06T01:00:00Z,28.9818,-94.9186,2.0,34.24,11111222 
TABS,ioos:station:wmo:42043:1,2017-02-06T01:30:00Z,28.9818,-94.9186,2.0,34.21,11111222 
TABS,ioos:station:wmo:42043:1,2017-02-06T02:00:00Z,28.9818,-94.9186,2.0,34.21,11111222 
TABS,ioos:station:wmo:42043:1,2017-02-06T02:30:00Z,28.9818,-94.9186,2.0,34.21,11111222 
TABS,ioos:station:wmo:42043:1,2017-02-06T03:00:00Z,28.9818,-94.9186,2.0,34.2,11111222 
TABS,ioos:station:wmo:42043:1,2017-02-06T03:30:00Z,28.9818,-94.9186,2.0,34.19,11111222 
TABS,ioos:station:wmo:42043:1,2017-02-06T04:00:00Z,28.9818,-94.9186,2.0,34.18,11111222 
TABS,ioos:station:wmo:42043:1,2017-02-06T04:30:00Z,28.9818,-94.9186,2.0,34.17,11111222 
TABS,ioos:station:wmo:42043:1,2017-02-06T05:00:00Z,28.9818,-94.9186,2.0,34.17,11111222 
TABS,ioos:station:wmo:42043:1,2017-02-06T05:30:00Z,28.9818,-94.9186,2.0,34.16,11111222 
TABS,ioos:station:wmo:42043:1,2017-02-06T06:00:00Z,28.9818,-94.9186,2.0,34.16,11111222 
TABS,ioos:station:wmo:42043:1,2017-02-06T06:30:00Z,28.9818,-94.9186,2.0,34.15,11111222 
TABS,ioos:station:wmo:42043:1,2017-02-06T07:00:00Z,28.9818,-94.9186,2.0,34.15,11111222 
TABS,ioos:station:wmo:42043:1,2017-02-06T07:30:00Z,28.9818,-94.9186,2.0,34.15,11111222 
TABS,ioos:station:wmo:42043:1,2017-02-06T08:00:00Z,28.9818,-94.9186,2.0,34.15,11111222 
TABS,ioos:station:wmo:42043:1,2017-02-06T08:30:00Z,28.9818,-94.9186,2.0,34.14,11111222 
TABS,ioos:station:wmo:42043:1,2017-02-06T09:00:00Z,28.9818,-94.9186,2.0,34.17,11111222 
TABS,ioos:station:wmo:42043:1,2017-02-06T09:30:00Z,28.9818,-94.9186,2.0,34.16,11111222 
TABS,ioos:station:wmo:42043:1,2017-02-06T10:00:00Z,28.9818,-94.9186,2.0,34.15,11111222 
TABS,ioos:station:wmo:42043:1,2017-02-06T10:30:00Z,28.9818,-94.9186,2.0,34.15,11111222 
TABS,ioos:station:wmo:42043:1,2017-02-06T11:00:00Z,28.9818,-94.9186,2.0,34.15,11111222 
TABS,ioos:station:wmo:42043:1,2017-02-06T11:30:00Z,28.9818,-94.9186,2.0,34.15,11111222 
TABS,ioos:station:wmo:42043:1,2017-02-06T12:00:00Z,28.9818,-94.9186,2.0,34.14,11111222 
TABS,ioos:station:wmo:42043:1,2017-02-06T12:30:00Z,28.9818,-94.9186,2.0,34.13,11111222 
TABS,ioos:station:wmo:42043:1,2017-02-06T13:00:00Z,28.9818,-94.9186,2.0,34.11,11111222 
TABS,ioos:station:wmo:42043:1,2017-02-06T13:30:00Z,28.9818,-94.9186,2.0,34.11,11111222 
TABS,ioos:station:wmo:42043:1,2017-02-06T14:00:00Z,28.9818,-94.9186,2.0,34.1,11111222 
TABS,ioos:station:wmo:42043:1,2017-02-06T14:30:00Z,28.9818,-94.9186,2.0,34.1,11111222 
TABS,ioos:station:wmo:42043:1,2017-02-06T15:00:00Z,28.9818,-94.9186,2.0,34.1,11111222 
TABS,ioos:station:wmo:42043:1,2017-02-06T15:30:00Z,28.9818,-94.9186,2.0,34.1,11111222 
TABS,ioos:station:wmo:42043:1,2017-02-06T16:00:00Z,28.9818,-94.9186,2.0,34.11,11111222 
TABS,ioos:station:wmo:42043:1,2017-02-06T16:30:00Z,28.9818,-94.9186,2.0,34.12,11111222 
TABS,ioos:station:wmo:42043:1,2017-02-06T17:00:00Z,28.9818,-94.9186,2.0,34.12,11111222 
TABS,ioos:station:wmo:42043:1,2017-02-06T17:30:00Z,28.9818,-94.9186,2.0,34.11,11111222 
TABS,ioos:station:wmo:42043:1,2017-02-06T18:00:00Z,28.9818,-94.9186,2.0,34.12,11111222 
TABS,ioos:station:wmo:42043:1,2017-02-06T18:30:00Z,28.9818,-94.9186,2.0,34.13,11111222 
TABS,ioos:station:wmo:42043:1,2017-02-06T19:00:00Z,28.9818,-94.9186,2.0,34.13,11111222 
TABS,ioos:station:wmo:42043:1,2017-02-06T19:30:00Z,28.9818,-94.9186,2.0,34.13,11111222 
TABS,ioos:station:wmo:42043:1,2017-02-06T20:00:00Z,28.9818,-94.9186,2.0,34.14,11111222 
TABS,ioos:station:wmo:42043:1,2017-02-06T20:30:00Z,28.9818,-94.9186,2.0,34.14,11111222 
TABS,ioos:station:wmo:42043:1,2017-02-06T21:00:00Z,28.9818,-94.9186,2.0,34.14,11111222 
TABS,ioos:station:wmo:42043:1,2017-02-06T21:30:00Z,28.9818,-94.9186,2.0,34.15,11111222 
TABS,ioos:station:wmo:42043:1,2017-02-06T22:00:00Z,28.9818,-94.9186,2.0,34.16,11111222 
TABS,ioos:station:wmo:42043:1,2017-02-06T22:30:00Z,28.9818,-94.9186,2.0,34.17,11111222 
TABS,ioos:station:wmo:42043:1,2017-02-06T23:00:00Z,28.9818,-94.9186,2.0,34.18,11111222 
TABS,ioos:station:wmo:42043:1,2017-02-06T23:30:00Z,28.9818,-94.9186,2.0,34.18,11111222 
TABS,ioos:station:wmo:42043:1,2017-02-07T00:00:00Z,28.9818,-94.9186,2.0,34.19,11111222 
TABS,ioos:station:wmo:42043:1,2017-02-07T00:30:00Z,28.9818,-94.9186,2.0,34.2,11111222 
TABS,ioos:station:wmo:42043:1,2017-02-07T01:00:00Z,28.9818,-94.9186,2.0,34.2,11111222 
TABS,ioos:station:wmo:42043:1,2017-02-07T01:30:00Z,28.9818,-94.9186,2.0,34.21,11111222 
TABS,ioos:station:wmo:42043:1,2017-02-07T02:00:00Z,28.9818,-94.9186,2.0,34.21,11111222 
TABS,ioos:station:wmo:42043:1,2017-02-07T02:30:00Z,28.9818,-94.9186,2.0,34.22,11111222 
TABS,ioos:station:wmo:42043:1,2017-02-07T03:00:00Z,28.9818,-94.9186,2.0,34.23,11111222 
TABS,ioos:station:wmo:42043:1,2017-02-07T03:30:00Z,28.9818,-94.9186,2.0,34.24,11111222 
TABS,ioos:station:wmo:42043:1,2017-02-07T04:00:00Z,28.9818,-94.9186,2.0,34.24,11111222 
TABS,ioos:station:wmo:42043:1,2017-02-07T04:30:00Z,28.9818,-94.9186,2.0,34.23,11111222 
TABS,ioos:station:wmo:42043:1,2017-02-07T05:00:00Z,28.9818,-94.9186,2.0,34.23,11111222 
TABS,ioos:station:wmo:42043:1,2017-02-07T05:30:00Z,28.9818,-94.9186,2.0,34.22,11111222 
TABS,ioos:station:wmo:42043:1,2017-02-07T06:00:00Z,28.9818,-94.9186,2.0,34.21,11111222 
TABS,ioos:station:wmo:42043:1,2017-02-07T06:30:00Z,28.9818,-94.9186,2.0,34.19,11111222 
TABS,ioos:station:wmo:42043:1,2017-02-07T07:00:00Z,28.9818,-94.9186,2.0,34.17,11111222 
TABS,ioos:station:wmo:42043:1,2017-02-07T07:30:00Z,28.9818,-94.9186,2.0,34.17,11111222 
TABS,ioos:station:wmo:42043:1,2017-02-07T08:00:00Z,28.9818,-94.9186,2.0,34.18,11111222 
TABS,ioos:station:wmo:42043:1,2017-02-07T08:30:00Z,28.9818,-94.9186,2.0,34.17,11111222 
TABS,ioos:station:wmo:42043:1,2017-02-07T09:00:00Z,28.9818,-94.9186,2.0,34.14,11111222 
TABS,ioos:station:wmo:42043:1,2017-02-07T09:30:00Z,28.9818,-94.9186,2.0,34.13,11111222 
TABS,ioos:station:wmo:42043:1,2017-02-07T10:00:00Z,28.9818,-94.9186,2.0,34.17,11111222 
TABS,ioos:station:wmo:42043:1,2017-02-07T10:30:00Z,28.9818,-94.9186,2.0,34.14,11111222 
TABS,ioos:station:wmo:42043:1,2017-02-07T11:00:00Z,28.9818,-94.9186,2.0,34.14,11111222 
TABS,ioos:station:wmo:42043:1,2017-02-07T11:30:00Z,28.9818,-94.9186,2.0,34.14,11111222 
TABS,ioos:station:wmo:42043:1,2017-02-07T12:00:00Z,28.9818,-94.9186,2.0,34.15,11111222 
TABS,ioos:station:wmo:42043:1,2017-02-07T12:30:00Z,28.9818,-94.9186,2.0,34.14,11111222 
TABS,ioos:station:wmo:42043:1,2017-02-07T13:00:00Z,28.9818,-94.9186,2.0,34.19,11111222 
TABS,ioos:station:wmo:42043:1,2017-02-07T13:30:00Z,28.9818,-94.9186,2.0,34.25,11111222 
TABS,ioos:station:wmo:42043:1,2017-02-07T14:00:00Z,28.9818,-94.9186,2.0,34.19,11111222 
TABS,ioos:station:wmo:42043:1,2017-02-07T14:30:00Z,28.9818,-94.9186,2.0,34.24,11111222 
TABS,ioos:station:wmo:42043:1,2017-02-07T15:00:00Z,28.9818,-94.9186,2.0,34.31,11111222 
TABS,ioos:station:wmo:42043:1,2017-02-07T15:30:00Z,28.9818,-94.9186,2.0,34.25,11111222 